[[{"header":{"parameterUnit":"m.s-1","parameterCategory":1,"la1":30.2991,"la2":30.254,"lo1":-89.0895,"lo2":-89.0444,"dy":0.0017,"dx":0.0017,"nx":28,"ny":28,"refTime":"2024-10-12T21:00:00:Z","depth":0,"parameterNumber":2,"parameterNumberName":"U-component_of_WINDS"},"data":[0,0,0,0,0,0,0,0,0,0,0,0,0,0,0,0,0,0,0,0,0,0,0,0,0,0,0,0,0,0,0,0,0,0,0,0,0,0,0,0,0,0,0,0,0,0,0,0,0,0,0,0,0,0,0,0,0,0,-0.3864,-0.3864,0,-0.3847,-0.3847,-0.3846,-0.3823,-0.3822,-0.3822,-0.3821,-0.3802,-0.3802,-0.3802,0,0,0,0,0,0,0,0,0,0,0,0,0,-0.3876,-0.3876,-0.3864,-0.3864,-0.3864,-0.3847,-0.3847,-0.3846,-0.3823,-0.3822,-0.3822,-0.3821,-0.3802,-0.3802,-0.3802,0,0,0,0,0,0,0,0,0,0,0,0,0,-0.3866,-0.3876,-0.3864,-0.385,-0.3848,-0.3847,-0.3847,-0.3846,-0.3823,-0.3822,-0.3821,-0.3821,-0.3802,-0.3802,-0.3802,-0.3813,0,0,-0.3801,-0.3801,0,0,0,0,0,0,0,0,-0.3867,-0.3866,-0.3852,-0.3851,-0.3849,-0.3836,-0.3844,-0.3835,-0.3823,-0.3832,-0.3821,-0.3821,-0.3814,-0.3813,-0.3811,-0.3812,-0.3811,-0.3801,-0.3801,-0.3801,-0.3801,0,0,0,0,0,0,0,-0.3867,-0.3866,-0.3857,-0.3852,-0.385,-0.3844,-0.3842,-0.3842,-0.3827,-0.3831,-0.383,-0.3828,-0.3813,-0.3811,-0.381,-0.3811,-0.3801,-0.3801,-0.3801,-0.3801,-0.3823,-0.3824,0,0,0,0,0,0,-0.387,-0.3867,-0.3858,-0.3857,-0.3857,-0.3844,-0.3842,-0.3841,-0.3827,-0.3824,-0.3829,-0.3827,-0.3812,-0.3811,-0.381,-0.3823,-0.3801,-0.3801,-0.3801,-0.3822,-0.3823,-0.3824,0,0,0,0,0,0,-0.3871,-0.387,-0.3858,-0.3861,-0.386,-0.3845,-0.3844,-0.3841,-0.3839,-0.3825,-0.3822,-0.383,-0.3811,-0.381,-0.3813,-0.3822,-0.3801,-0.3801,-0.3822,-0.3823,-0.3824,-0.3849,0,0,0,0,0,0,-0.3871,-0.387,-0.3874,-0.3862,-0.3859,-0.3862,-0.3844,-0.3841,-0.3839,-0.3837,-0.3825,-0.3822,-0.3811,-0.3813,-0.3813,-0.3821,-0.3801,-0.3821,-0.3822,-0.3823,-0.3847,-0.3851,-0.3854,0,0,0,0,0,-0.3872,-0.3881,-0.3874,-0.3873,-0.3864,-0.3863,-0.3861,-0.3848,-0.384,-0.3844,-0.3835,-0.3822,-0.3821,-0.3814,-0.3813,-0.3822,-0.382,-0.3822,-0.3823,-0.3846,-0.385,-0.3854,0,0,0,0,0,0,-0.3893,-0.3879,-0.3871,-0.3877,-0.3871,-0.3859,-0.3863,-0.3853,-0.3849,-0.3847,-0.3831,-0.3829,-0.3835,-0.3828,-0.382,-0.3833,-0.3819,-0.382,-0.3837,-0.384,-0.3844,-0.3845,-0.3801,0,0,0,0,0,-0.3899,-0.3899,-0.3886,-0.3892,-0.389,-0.3877,-0.3876,-0.3867,-0.386,-0.3858,-0.3849,-0.3843,-0.3842,-0.3841,-0.3838,-0.3847,-0.3845,-0.3852,-0.3856,-0.3858,-0.386,-0.3866,-0.387,-0.3829,-0.3829,-0.3829,0,0,-0.391,-0.3902,-0.3903,-0.3897,-0.3891,-0.3892,-0.3875,-0.3876,-0.3877,-0.3858,-0.3861,-0.3855,-0.3847,-0.3853,-0.3856,-0.3848,-0.3871,-0.386,-0.3863,-0.3863,-0.3868,-0.3872,-0.3875,-0.383,-0.383,-0.383,0,0,-0.393,-0.3924,-0.393,-0.3925,-0.3918,-0.391,-0.3911,-0.3901,-0.3896,-0.3899,-0.3885,-0.3886,-0.3883,-0.3879,-0.3876,-0.3899,-0.3888,-0.3898,-0.3915,-0.3921,-0.3925,-0.3927,-0.3937,-0.394,-0.39,-0.39,-0.39,0,-0.3945,-0.3946,-0.3933,-0.3936,-0.3935,-0.3919,-0.3924,-0.392,-0.3913,-0.3912,-0.3904,-0.3902,-0.3895,-0.3902,-0.3908,-0.3906,-0.3908,-0.3899,-0.3925,-0.3928,-0.393,-0.3939,-0.3942,-0.3901,-0.3901,-0.3901,-0.3901,0,-0.3965,-0.3966,-0.3971,-0.3966,-0.3965,-0.3969,-0.3957,-0.3958,-0.395,-0.3943,-0.3947,-0.3939,-0.3936,-0.3937,-0.3928,-0.3943,-0.3939,-0.3928,-0.3914,-0.3936,-0.3944,-0.3947,-0.3903,-0.3903,-0.3903,-0.3902,0,0,-0.3997,-0.3986,-0.3988,-0.3987,-0.3979,-0.3979,-0.3984,-0.3982,-0.3983,-0.3979,-0.3983,-0.3982,-0.3973,-0.3971,-0.3962,-0.3967,-0.3987,-0.3956,-0.3956,-0.3963,-0.4005,-0.4013,-0.4017,-0.398,-0.3981,-0.3981,-0.4006,0,-0.4017,-0.4024,-0.4014,-0.4023,-0.4025,-0.4011,-0.4015,-0.4011,-0.4005,-0.4006,-0.3999,-0.4,-0.3988,-0.3986,-0.3991,-0.3984,-0.3996,-0.3982,-0.3984,-0.3985,-0.3987,-0.4021,-0.4029,-0.4053,-0.4009,-0.4009,-0.401,0,-0.404,-0.4039,-0.4049,-0.4043,-0.4043,-0.4047,-0.4045,-0.4046,-0.4042,-0.4037,-0.4036,-0.4026,-0.4031,-0.4017,-0.4024,-0.4015,-0.4016,-0.4013,-0.4014,-0.4013,-0.3999,-0.4023,-0.406,-0.4064,-0.4014,-0.4014,-0.4014,0,-0.4065,-0.4065,-0.4072,-0.407,-0.4062,-0.4066,-0.4063,-0.4058,-0.4058,-0.4057,-0.4057,-0.4056,-0.4056,-0.4056,-0.4046,-0.4037,-0.4055,-0.404,-0.4052,-0.4053,-0.4056,-0.4056,-0.4095,-0.4056,-0.4056,-0.4056,-0.4056,0,-0.4088,-0.4095,-0.4083,-0.4087,-0.4095,-0.4083,-0.4092,-0.4087,-0.4084,-0.4087,-0.4075,-0.4078,-0.4065,-0.4068,-0.4061,-0.4069,-0.4068,-0.4065,-0.4063,-0.4067,-0.4067,-0.4067,-0.4065,-0.4057,-0.4057,-0.4056,-0.4056,0,-0.4116,-0.4108,-0.4114,-0.4107,-0.4106,-0.4112,-0.4106,-0.411,-0.4104,-0.4109,-0.411,-0.4101,-0.4103,-0.4094,-0.4095,-0.409,-0.4102,-0.4097,-0.4104,-0.4102,-0.4115,-0.4115,-0.4155,-0.4161,-0.4118,-0.4118,-0.4119,0,-0.4131,-0.4137,-0.4131,-0.4133,-0.4131,-0.4134,-0.4134,-0.4124,-0.4126,-0.4123,-0.4127,-0.4129,-0.413,-0.4135,-0.4129,-0.413,-0.4125,-0.414,-0.4125,-0.4129,-0.4127,-0.4127,-0.4128,-0.4143,-0.4143,-0.4144,-0.4144,0,-0.416,-0.4157,-0.4158,-0.4159,-0.4161,-0.4161,-0.416,-0.4162,-0.4152,-0.4154,-0.4157,-0.4158,-0.416,-0.4163,-0.4163,-0.416,-0.4151,-0.4149,-0.4152,-0.4155,-0.416,-0.4159,-0.4113,-0.4148,-0.4147,-0.4147,-0.4147,-0.4147,-0.4183,-0.4188,-0.4185,-0.4188,-0.4187,-0.4187,-0.4191,-0.4187,-0.4189,-0.4191,-0.4185,-0.419,-0.4187,-0.4187,-0.4186,-0.419,-0.4183,-0.4187,-0.4188,-0.419,-0.4192,-0.4159,-0.419,-0.419,-0.4189,-0.4189,-0.4189,0,-0.4212,-0.4211,-0.4213,-0.4214,-0.4216,-0.4208,-0.4208,-0.421,-0.4215,-0.4214,-0.4216,-0.4221,-0.4224,-0.4219,-0.4221,-0.4226,-0.4222,-0.4227,-0.4227,-0.4226,-0.4197,-0.4195,-0.423,-0.423,-0.423,-0.423,-0.423,-0.423,-0.4228,-0.4236,-0.4233,-0.4241,-0.4239,-0.4245,-0.4245,-0.4246,-0.4245,-0.4251,-0.4254,-0.4251,-0.4249,-0.4252,-0.4255,-0.4253,-0.4255,-0.4262,-0.4259,-0.4232,-0.4228,-0.4224,-0.4222,-0.4262,-0.4262,-0.4288,-0.4288,-0.4288]},{"header":{"parameterUnit":"m.s-1","parameterCategory":1,"la1":30.2991,"la2":30.254,"lo1":-89.0895,"lo2":-89.0444,"dy":0.0017,"dx":0.0017,"nx":28,"ny":28,"refTime":"2024-10-12T21:00:00:Z","depth":0,"parameterNumber":3,"parameterNumberName":"V-component_of_WINDS"},"data":[0,0,0,0,0,0,0,0,0,0,0,0,0,0,0,0,0,0,0,0,0,0,0,0,0,0,0,0,0,0,0,0,0,0,0,0,0,0,0,0,0,0,0,0,0,0,0,0,0,0,0,0,0,0,0,0,0,0,2.7346,2.7346,0,2.7359,2.7359,2.7359,2.738,2.738,2.7381,2.7381,2.7391,2.7391,2.7391,0,0,0,0,0,0,0,0,0,0,0,0,0,2.7334,2.7334,2.7346,2.7346,2.7346,2.7359,2.7359,2.7359,2.738,2.738,2.7381,2.7381,2.7392,2.7391,2.7391,0,0,0,0,0,0,0,0,0,0,0,0,0,2.7342,2.7334,2.7346,2.7358,2.7359,2.7359,2.7359,2.7359,2.738,2.738,2.7381,2.7381,2.7392,2.7391,2.7391,2.7379,0,0,2.7391,2.7391,0,0,0,0,0,0,0,0,2.7341,2.7342,2.7356,2.7357,2.7359,2.7368,2.7359,2.7366,2.738,2.7372,2.7381,2.7382,2.7383,2.7384,2.7385,2.738,2.738,2.7391,2.7391,2.7391,2.7391,0,0,0,0,0,0,0,2.7341,2.7342,2.7351,2.7356,2.7358,2.7361,2.7363,2.736,2.7374,2.7373,2.7374,2.7375,2.7384,2.7385,2.7385,2.738,2.7391,2.7391,2.7391,2.7391,2.7361,2.7361,0,0,0,0,0,0,2.7339,2.7341,2.7351,2.7351,2.7351,2.7361,2.7363,2.7365,2.7374,2.7376,2.7375,2.7376,2.7385,2.7385,2.7386,2.7369,2.7391,2.7391,2.7391,2.7362,2.7361,2.7361,0,0,0,0,0,0,2.7339,2.734,2.735,2.7347,2.7348,2.7361,2.7362,2.7365,2.7366,2.7376,2.7378,2.7374,2.7385,2.7386,2.738,2.737,2.7391,2.7391,2.7363,2.7362,2.7361,2.7338,0,0,0,0,0,0,2.7338,2.7339,2.7336,2.7347,2.7348,2.7346,2.7362,2.7364,2.7366,2.7368,2.7375,2.7377,2.7386,2.738,2.738,2.737,2.7391,2.7364,2.7362,2.7361,2.734,2.7337,2.7334,0,0,0,0,0,2.7338,2.733,2.7336,2.7337,2.7345,2.7345,2.7346,2.7357,2.7365,2.7361,2.7367,2.7377,2.7371,2.7379,2.7379,2.737,2.7365,2.7363,2.7361,2.7341,2.7337,2.7334,0,0,0,0,0,0,2.7318,2.7332,2.7339,2.7334,2.7338,2.7349,2.7344,2.7353,2.7354,2.7356,2.7368,2.7369,2.7361,2.7365,2.7373,2.7356,2.7369,2.7368,2.7354,2.735,2.7347,2.7346,2.739,0,0,0,0,0,2.7313,2.7314,2.7325,2.732,2.7321,2.7332,2.7333,2.734,2.7345,2.7346,2.7352,2.7355,2.7353,2.7352,2.7352,2.7341,2.7341,2.7334,2.7331,2.7328,2.7326,2.7317,2.7313,2.7355,2.7355,2.7355,0,0,2.7304,2.7311,2.731,2.7316,2.732,2.7318,2.7334,2.7332,2.7329,2.7346,2.734,2.7344,2.7348,2.7338,2.7334,2.7341,2.7314,2.7326,2.7324,2.7323,2.7315,2.7311,2.7307,2.7354,2.7354,2.7355,0,0,2.7284,2.7291,2.7286,2.7289,2.7295,2.7301,2.73,2.7308,2.7311,2.7306,2.7317,2.7314,2.7312,2.7313,2.7314,2.729,2.7298,2.729,2.7273,2.7264,2.7261,2.7258,2.7246,2.7243,2.7288,2.7288,2.7288,0,2.7271,2.727,2.7282,2.7278,2.7279,2.7293,2.7286,2.7289,2.7294,2.7293,2.73,2.7296,2.73,2.7289,2.7283,2.7284,2.728,2.7289,2.726,2.7257,2.7255,2.7244,2.724,2.7287,2.7287,2.7287,2.7287,0,2.7252,2.725,2.7245,2.7249,2.7249,2.7244,2.7253,2.7251,2.7258,2.7263,2.7255,2.7259,2.7258,2.7257,2.7264,2.7246,2.7249,2.7258,2.7272,2.7249,2.7239,2.7236,2.7285,2.7285,2.7286,2.7286,0,0,2.7222,2.7231,2.7229,2.7229,2.7235,2.7233,2.7227,2.7226,2.7223,2.7225,2.7218,2.7214,2.7222,2.7222,2.7229,2.7221,2.7198,2.7231,2.7231,2.7222,2.7174,2.7166,2.7162,2.7204,2.7203,2.7203,2.7173,0,2.7203,2.7194,2.7203,2.7192,2.7188,2.72,2.7194,2.7196,2.7199,2.7195,2.7199,2.7195,2.7207,2.7207,2.7199,2.7203,2.7188,2.7205,2.7195,2.7195,2.7192,2.7157,2.7149,2.7121,2.717,2.7169,2.7169,0,2.718,2.718,2.7168,2.7171,2.717,2.7165,2.7162,2.716,2.716,2.7163,2.7161,2.7169,2.716,2.7173,2.716,2.7171,2.7167,2.7167,2.7166,2.7165,2.7179,2.7152,2.7113,2.7108,2.7163,2.7164,2.7164,0,2.7157,2.7154,2.7145,2.7145,2.715,2.7145,2.7146,2.7147,2.7145,2.7142,2.714,2.7137,2.7134,2.713,2.7135,2.7145,2.712,2.7134,2.7119,2.7119,2.7113,2.7113,2.7071,2.7114,2.7114,2.7114,2.7114,0,2.7133,2.7125,2.7134,2.7129,2.7118,2.7127,2.7116,2.7118,2.7118,2.7112,2.7122,2.7115,2.7123,2.7116,2.712,2.7106,2.7106,2.7106,2.7107,2.7104,2.7104,2.7101,2.7102,2.7113,2.7113,2.7113,2.7113,0,2.7106,2.7113,2.7103,2.7107,2.7107,2.7099,2.7101,2.7095,2.7098,2.7089,2.7087,2.7092,2.7084,2.7089,2.7081,2.7083,2.7064,2.7069,2.7064,2.7065,2.7048,2.7049,2.7001,2.6994,2.7044,2.7043,2.7043,0,2.7091,2.7084,2.7086,2.7082,2.7083,2.7077,2.7074,2.7081,2.7077,2.7075,2.7068,2.706,2.7055,2.7041,2.7042,2.7035,2.7038,2.7022,2.7037,2.7033,2.7034,2.7034,2.7032,2.7018,2.7018,2.7017,2.7017,0,2.7061,2.7063,2.7059,2.7055,2.7051,2.7048,2.7045,2.7041,2.7048,2.7042,2.7034,2.703,2.702,2.7011,2.7004,2.7003,2.701,2.7012,2.7008,2.7004,2.7,2.6999,2.7053,2.7013,2.7013,2.7014,2.7014,2.7014,2.7038,2.7031,2.703,2.7024,2.7022,2.7019,2.7012,2.7013,2.7007,2.7,2.7004,2.6993,2.6989,2.698,2.6978,2.6968,2.6974,2.6969,2.6967,2.6965,2.6961,2.7003,2.6967,2.6967,2.6967,2.6967,2.6967,0,2.7007,2.7006,2.7,2.6995,2.6989,2.6996,2.6993,2.6987,2.6977,2.6974,2.6967,2.6955,2.6946,2.6945,2.6936,2.6927,2.693,2.6924,2.6924,2.6923,2.6958,2.6961,2.6922,2.6922,2.6922,2.6922,2.6922,2.6922,2.699,2.6978,2.6979,2.6964,2.6963,2.6953,2.695,2.6945,2.6942,2.6928,2.692,2.692,2.6916,2.6906,2.6896,2.6896,2.6891,2.6884,2.6884,2.6917,2.6921,2.6925,2.6928,2.6883,2.6883,2.685,2.6849,2.6849]}]]